Location: Brookview Estates
(36.0476°N, 86.6931°W)
Time: 13:15:09
(UTC+00:00)

Cosmos 1943 Rocket - Pass Details

Date: 30 March 2020
Orbit: 811 x 845 km, 71.0° (Epoch: 02 June)

Event Time Altitude Azimuth Distance (km) Brightness Sun altitude
Rises 03:02:42 0° 332° (NNW) 3,350 6.2 -33.9°
Reaches altitude 10° 03:05:11 10° 327° (NNW) 2,419 5.3 -34.3°
Enters shadow 03:09:00 39° 297° (WNW) 1,216 3.3 -34.9°
